[[{"header":{"parameterUnit":"m.s-1","parameterCategory":1,"la1":30.2991,"la2":30.254,"lo1":-89.0895,"lo2":-89.0444,"dy":0.0017,"dx":0.0017,"nx":28,"ny":28,"refTime":"2024-08-03T09:00:00:Z","depth":0,"parameterNumber":2,"parameterNumberName":"U-component_of_WINDS"},"data":[0,0,0,0,0,0,0,0,0,0,0,0,0,0,0,0,0,0,0,0,0,0,0,0,0,0,0,0,0,0,0,0,0,0,0,0,0,0,0,0,0,0,0,0,0,0,0,0,0,0,0,0,0,0,0,0,0,0,-3.7776,-3.7775,0,-3.7689,-3.7688,-3.7687,-3.7551,-3.7549,-3.7546,-3.7544,-3.7458,-3.7458,-3.7458,0,0,0,0,0,0,0,0,0,0,0,0,0,-3.7831,-3.783,-3.7776,-3.7775,-3.7774,-3.7689,-3.7688,-3.7687,-3.7551,-3.7548,-3.7546,-3.7543,-3.7458,-3.7458,-3.7458,0,0,0,0,0,0,0,0,0,0,0,0,0,-3.7782,-3.783,-3.7777,-3.7696,-3.7688,-3.7689,-3.7688,-3.7686,-3.7552,-3.7548,-3.7545,-3.7541,-3.7458,-3.7458,-3.7458,-3.7531,0,0,-3.7458,-3.7458,0,0,0,0,0,0,0,0,-3.7785,-3.778,-3.7709,-3.7702,-3.7693,-3.7627,-3.7675,-3.7634,-3.7553,-3.7604,-3.7544,-3.754,-3.7517,-3.7512,-3.7504,-3.7527,-3.7523,-3.7458,-3.7458,-3.7458,-3.7458,0,0,0,0,0,0,0,-3.7788,-3.7783,-3.7742,-3.7709,-3.7698,-3.7666,-3.7655,-3.7667,-3.7583,-3.7599,-3.7589,-3.758,-3.7512,-3.7504,-3.7501,-3.7522,-3.7458,-3.7458,-3.7458,-3.7458,-3.7603,-3.7607,0,0,0,0,0,0,-3.7803,-3.7787,-3.7745,-3.7739,-3.7731,-3.7668,-3.7656,-3.7652,-3.7582,-3.7568,-3.7584,-3.7574,-3.7506,-3.7501,-3.7497,-3.7579,-3.7458,-3.7458,-3.7458,-3.7599,-3.7604,-3.7608,0,0,0,0,0,0,-3.7805,-3.7801,-3.7748,-3.776,-3.7751,-3.7671,-3.7668,-3.7652,-3.7644,-3.757,-3.7555,-3.7591,-3.7503,-3.7497,-3.7524,-3.7574,-3.7458,-3.7458,-3.7595,-3.7601,-3.7606,-3.7744,0,0,0,0,0,0,-3.7807,-3.7802,-3.7828,-3.7762,-3.7751,-3.7775,-3.7671,-3.7653,-3.7644,-3.7631,-3.7573,-3.756,-3.75,-3.7525,-3.7524,-3.7572,-3.7458,-3.759,-3.7597,-3.7604,-3.7734,-3.7753,-3.777,0,0,0,0,0,-3.7809,-3.7871,-3.783,-3.7825,-3.7781,-3.7778,-3.7772,-3.7701,-3.7649,-3.7675,-3.7627,-3.7561,-3.7569,-3.7529,-3.7526,-3.7576,-3.7586,-3.7595,-3.7604,-3.7726,-3.775,-3.777,0,0,0,0,0,0,-3.7945,-3.786,-3.7814,-3.7856,-3.7825,-3.7755,-3.7786,-3.7728,-3.7712,-3.7701,-3.7615,-3.7603,-3.7641,-3.7611,-3.7567,-3.7644,-3.7568,-3.7576,-3.7662,-3.7683,-3.7701,-3.7707,-3.7458,0,0,0,0,0,-3.798,-3.7983,-3.7909,-3.7953,-3.794,-3.7866,-3.7862,-3.781,-3.7775,-3.7762,-3.7716,-3.7687,-3.7682,-3.7681,-3.7673,-3.773,-3.7716,-3.7763,-3.7781,-3.7796,-3.7804,-3.7833,-3.7854,-3.7637,-3.7636,-3.7636,0,0,-3.8052,-3.8006,-3.8013,-3.798,-3.795,-3.7956,-3.7856,-3.7867,-3.7872,-3.7764,-3.7786,-3.7752,-3.7713,-3.7755,-3.7772,-3.7732,-3.7861,-3.7807,-3.7819,-3.7819,-3.7844,-3.7865,-3.7883,-3.7642,-3.7641,-3.764,0,0,-3.8186,-3.8152,-3.8185,-3.8157,-3.8113,-3.8064,-3.8072,-3.8011,-3.7984,-3.8005,-3.7924,-3.793,-3.7924,-3.7899,-3.7886,-3.8014,-3.7954,-3.8014,-3.8107,-3.8137,-3.8154,-3.8169,-3.8215,-3.8233,-3.8023,-3.8024,-3.8024,0,-3.8282,-3.8287,-3.8209,-3.8226,-3.8214,-3.8116,-3.815,-3.8127,-3.8084,-3.8079,-3.8034,-3.8026,-3.7992,-3.8028,-3.806,-3.8052,-3.806,-3.802,-3.8158,-3.8172,-3.8184,-3.8228,-3.8245,-3.8031,-3.803,-3.803,-3.8029,0,-3.8407,-3.8413,-3.8445,-3.8404,-3.8396,-3.8422,-3.8349,-3.8351,-3.83,-3.8256,-3.828,-3.8237,-3.8219,-3.8223,-3.8174,-3.8253,-3.823,-3.8173,-3.8095,-3.8214,-3.8253,-3.8269,-3.8042,-3.804,-3.8037,-3.8035,0,0,-3.8623,-3.854,-3.8554,-3.8535,-3.848,-3.8483,-3.8505,-3.8487,-3.849,-3.8464,-3.8481,-3.848,-3.8427,-3.8413,-3.836,-3.8386,-3.8492,-3.8326,-3.8324,-3.8359,-3.8578,-3.8621,-3.8641,-3.8451,-3.8454,-3.8456,-3.8581,0,-3.8747,-3.8778,-3.8709,-3.8758,-3.8763,-3.8671,-3.869,-3.866,-3.862,-3.862,-3.8576,-3.8577,-3.8507,-3.8498,-3.8519,-3.8474,-3.8535,-3.8464,-3.8468,-3.8469,-3.848,-3.8661,-3.8706,-3.8826,-3.8596,-3.8598,-3.86,0,-3.8894,-3.8875,-3.8924,-3.8868,-3.8867,-3.8886,-3.8864,-3.8865,-3.8829,-3.8798,-3.8784,-3.8722,-3.8742,-3.8667,-3.8693,-3.8647,-3.8645,-3.8624,-3.8627,-3.8624,-3.8542,-3.8664,-3.8862,-3.888,-3.8624,-3.8622,-3.862,0,-3.9048,-3.9035,-3.9062,-3.9049,-3.8984,-3.8999,-3.8973,-3.8934,-3.8928,-3.891,-3.8905,-3.8891,-3.8883,-3.8873,-3.8811,-3.8762,-3.8845,-3.8765,-3.8822,-3.8824,-3.8843,-3.8842,-3.9044,-3.8842,-3.8842,-3.8841,-3.8841,0,-3.9193,-3.9226,-3.913,-3.9148,-3.9183,-3.9106,-3.9144,-3.9109,-3.9075,-3.9085,-3.9006,-3.9017,-3.8933,-3.8936,-3.8888,-3.8918,-3.8915,-3.8892,-3.8878,-3.8899,-3.8902,-3.8896,-3.8886,-3.8846,-3.8845,-3.8844,-3.8843,0,-3.937,-3.9307,-3.9331,-3.9268,-3.9253,-3.9282,-3.9229,-3.9243,-3.9199,-3.9212,-3.9211,-3.9143,-3.9142,-3.9079,-3.9065,-3.9033,-3.9084,-3.9055,-3.9095,-3.9086,-3.9147,-3.9142,-3.9351,-3.9375,-3.9159,-3.9161,-3.9163,0,-3.9466,-3.949,-3.9429,-3.943,-3.9408,-3.941,-3.9403,-3.9328,-3.9325,-3.9288,-3.9307,-3.93,-3.929,-3.9294,-3.9244,-3.9234,-3.9205,-3.9279,-3.9203,-3.9223,-3.9207,-3.9206,-3.9209,-3.9295,-3.9298,-3.93,-3.9302,0,-3.9644,-3.9612,-3.9605,-3.9588,-3.9582,-3.9565,-3.9544,-3.9549,-3.9468,-3.9469,-3.9466,-3.9459,-3.9446,-3.944,-3.9421,-3.9396,-3.9337,-3.9326,-3.9339,-3.936,-3.9382,-3.9372,-3.9139,-3.9322,-3.932,-3.9318,-3.9317,-3.9316,-3.9784,-3.9801,-3.9762,-3.9757,-3.9733,-3.9715,-3.9725,-3.9683,-3.9679,-3.9662,-3.9619,-3.9624,-3.959,-3.9558,-3.9539,-3.9544,-3.9507,-3.9525,-3.9529,-3.9535,-3.9547,-3.9382,-3.954,-3.9539,-3.9539,-3.9538,-3.9538,0,-3.9958,-3.9928,-3.9925,-3.9897,-3.9894,-3.9837,-3.9811,-3.9813,-3.9818,-3.9791,-3.9783,-3.9782,-3.9777,-3.9728,-3.9717,-3.9731,-3.9703,-3.9731,-3.9729,-3.9724,-3.958,-3.957,-3.9753,-3.9753,-3.9753,-3.9753,-3.9753,-3.9753,-4.0048,-4.0075,-4.0039,-4.0053,-4.0024,-4.0028,-4.0018,-4.0002,-3.998,-3.9982,-3.9977,-3.9944,-3.9909,-3.9895,-3.9889,-3.9875,-3.9875,-3.9912,-3.9889,-3.9755,-3.9734,-3.9714,-3.9705,-3.9912,-3.9913,-4.0032,-4.0033,-4.0034]},{"header":{"parameterUnit":"m.s-1","parameterCategory":1,"la1":30.2991,"la2":30.254,"lo1":-89.0895,"lo2":-89.0444,"dy":0.0017,"dx":0.0017,"nx":28,"ny":28,"refTime":"2024-08-03T09:00:00:Z","depth":0,"parameterNumber":3,"parameterNumberName":"V-component_of_WINDS"},"data":[0,0,0,0,0,0,0,0,0,0,0,0,0,0,0,0,0,0,0,0,0,0,0,0,0,0,0,0,0,0,0,0,0,0,0,0,0,0,0,0,0,0,0,0,0,0,0,0,0,0,0,0,0,0,0,0,0,0,-0.4162,-0.4161,0,-0.4129,-0.4129,-0.4128,-0.4111,-0.4111,-0.4111,-0.4111,-0.4076,-0.4075,-0.4074,0,0,0,0,0,0,0,0,0,0,0,0,0,-0.4208,-0.4208,-0.4162,-0.4161,-0.4161,-0.4129,-0.4129,-0.4128,-0.4111,-0.4111,-0.4111,-0.4111,-0.4076,-0.4075,-0.4074,0,0,0,0,0,0,0,0,0,0,0,0,0,-0.4183,-0.4207,-0.4162,-0.4148,-0.4147,-0.4129,-0.4129,-0.4128,-0.4111,-0.4111,-0.4111,-0.4111,-0.4077,-0.4075,-0.4074,-0.4067,0,0,-0.407,-0.407,0,0,0,0,0,0,0,0,-0.4185,-0.4181,-0.4151,-0.4149,-0.4147,-0.4124,-0.4132,-0.4108,-0.4111,-0.4124,-0.4111,-0.4111,-0.4092,-0.4089,-0.4083,-0.4065,-0.4064,-0.407,-0.4069,-0.4069,-0.4068,0,0,0,0,0,0,0,-0.4186,-0.4183,-0.4149,-0.415,-0.4148,-0.4144,-0.414,-0.4128,-0.4109,-0.4123,-0.4122,-0.4118,-0.4091,-0.4085,-0.4082,-0.4063,-0.407,-0.4069,-0.4068,-0.4067,-0.404,-0.404,0,0,0,0,0,0,-0.419,-0.4184,-0.415,-0.4148,-0.4166,-0.4143,-0.4139,-0.4131,-0.4109,-0.4105,-0.4118,-0.4118,-0.4087,-0.4084,-0.4081,-0.4072,-0.4069,-0.4067,-0.4067,-0.4039,-0.404,-0.404,0,0,0,0,0,0,-0.4191,-0.4187,-0.4151,-0.4166,-0.4161,-0.4142,-0.4134,-0.4131,-0.4124,-0.4105,-0.4102,-0.4115,-0.4087,-0.4083,-0.4071,-0.4071,-0.4067,-0.4066,-0.4039,-0.404,-0.404,-0.4054,0,0,0,0,0,0,-0.4193,-0.4188,-0.4185,-0.4166,-0.416,-0.4142,-0.4134,-0.413,-0.4122,-0.4121,-0.4102,-0.4098,-0.4086,-0.4073,-0.407,-0.4069,-0.4065,-0.4039,-0.4039,-0.404,-0.4054,-0.4055,-0.4056,0,0,0,0,0,-0.4195,-0.419,-0.4185,-0.4181,-0.4156,-0.4142,-0.4138,-0.4125,-0.4122,-0.4119,-0.4107,-0.4099,-0.4072,-0.4072,-0.4068,-0.4067,-0.4039,-0.4039,-0.404,-0.4053,-0.4054,-0.4056,0,0,0,0,0,0,-0.4208,-0.4187,-0.4181,-0.417,-0.4158,-0.4139,-0.4134,-0.4127,-0.4115,-0.4114,-0.4098,-0.4094,-0.4084,-0.4074,-0.4075,-0.406,-0.4055,-0.4054,-0.4066,-0.4067,-0.4068,-0.4071,-0.4063,0,0,0,0,0,-0.421,-0.4201,-0.4182,-0.4174,-0.4168,-0.4153,-0.4146,-0.4137,-0.4123,-0.4118,-0.4105,-0.4092,-0.4081,-0.4073,-0.4062,-0.4052,-0.4048,-0.405,-0.4051,-0.4052,-0.4051,-0.4047,-0.4047,-0.404,-0.404,-0.404,0,0,-0.4214,-0.4201,-0.4195,-0.4177,-0.4166,-0.4157,-0.4148,-0.4138,-0.4131,-0.4116,-0.4105,-0.4095,-0.4079,-0.4069,-0.4064,-0.4061,-0.4052,-0.4052,-0.4053,-0.4052,-0.4047,-0.4048,-0.4048,-0.404,-0.404,-0.404,0,0,-0.4215,-0.4204,-0.4197,-0.4187,-0.4172,-0.4162,-0.416,-0.4142,-0.4135,-0.4124,-0.4113,-0.4104,-0.4085,-0.4075,-0.4067,-0.4067,-0.4059,-0.4063,-0.4069,-0.4065,-0.4065,-0.4066,-0.4066,-0.4067,-0.4063,-0.4063,-0.4063,0,-0.4221,-0.4207,-0.4194,-0.4185,-0.4178,-0.4165,-0.4158,-0.4149,-0.413,-0.4125,-0.4122,-0.4099,-0.4087,-0.4075,-0.4075,-0.4069,-0.4067,-0.4065,-0.4066,-0.4067,-0.4067,-0.4067,-0.4068,-0.4064,-0.4064,-0.4064,-0.4064,0,-0.4216,-0.4206,-0.4202,-0.4186,-0.4178,-0.4169,-0.4156,-0.4149,-0.4141,-0.4132,-0.4121,-0.4107,-0.4093,-0.4089,-0.4081,-0.4076,-0.4075,-0.4069,-0.4064,-0.4068,-0.4069,-0.4069,-0.4065,-0.4065,-0.4064,-0.4064,0,0,-0.4224,-0.4202,-0.4201,-0.4194,-0.4177,-0.4169,-0.4161,-0.4148,-0.4143,-0.4131,-0.4124,-0.4109,-0.4104,-0.4096,-0.4086,-0.4083,-0.4085,-0.4078,-0.4077,-0.408,-0.408,-0.4085,-0.4085,-0.408,-0.408,-0.408,-0.4082,0,-0.4224,-0.4209,-0.4198,-0.4187,-0.4179,-0.4168,-0.4161,-0.415,-0.4141,-0.4132,-0.4122,-0.4112,-0.4106,-0.4101,-0.4097,-0.4086,-0.4085,-0.4085,-0.4074,-0.4073,-0.4078,-0.4085,-0.409,-0.4092,-0.4082,-0.4082,-0.4082,0,-0.4221,-0.4211,-0.42,-0.4185,-0.4181,-0.4175,-0.4164,-0.4155,-0.4143,-0.4137,-0.4128,-0.4119,-0.4111,-0.4106,-0.4095,-0.4095,-0.409,-0.4084,-0.4084,-0.4082,-0.4078,-0.4085,-0.4093,-0.4093,-0.4082,-0.4082,-0.4082,0,-0.4229,-0.4213,-0.4204,-0.4199,-0.4181,-0.4178,-0.417,-0.4158,-0.4151,-0.4141,-0.4137,-0.4125,-0.4119,-0.411,-0.4099,-0.4097,-0.4089,-0.4083,-0.4084,-0.4084,-0.4083,-0.4083,-0.409,-0.4078,-0.4078,-0.4078,-0.4078,0,-0.423,-0.4224,-0.4208,-0.4203,-0.4196,-0.4184,-0.4177,-0.4169,-0.4159,-0.4152,-0.4141,-0.4135,-0.412,-0.4112,-0.4103,-0.4095,-0.4092,-0.4087,-0.4085,-0.4088,-0.4089,-0.4085,-0.4084,-0.4078,-0.4078,-0.4078,-0.4078,0,-0.4238,-0.4227,-0.4217,-0.4202,-0.4199,-0.4194,-0.4182,-0.4176,-0.4168,-0.4159,-0.4157,-0.4142,-0.4133,-0.4121,-0.4107,-0.4101,-0.4094,-0.409,-0.4099,-0.4098,-0.4099,-0.41,-0.4105,-0.4105,-0.4092,-0.4092,-0.4093,0,-0.4239,-0.4235,-0.422,-0.4215,-0.4208,-0.42,-0.4194,-0.4182,-0.4176,-0.4163,-0.416,-0.415,-0.4141,-0.4126,-0.4115,-0.4105,-0.4101,-0.4103,-0.4099,-0.4103,-0.4102,-0.4102,-0.4102,-0.4104,-0.4104,-0.4105,-0.4105,0,-0.4244,-0.4239,-0.4231,-0.4221,-0.4214,-0.4206,-0.4197,-0.4194,-0.418,-0.4174,-0.4165,-0.4158,-0.4145,-0.4135,-0.4124,-0.4116,-0.4108,-0.4106,-0.4106,-0.411,-0.4115,-0.4113,-0.4102,-0.4106,-0.4106,-0.4106,-0.4106,-0.4106,-0.4249,-0.4245,-0.4234,-0.4226,-0.4218,-0.4211,-0.4206,-0.4197,-0.4189,-0.4178,-0.4171,-0.4163,-0.4152,-0.4136,-0.4129,-0.4122,-0.4119,-0.4118,-0.4118,-0.4118,-0.412,-0.4116,-0.412,-0.412,-0.4119,-0.4119,-0.4119,0,-0.4253,-0.4246,-0.4238,-0.4227,-0.4221,-0.4215,-0.4206,-0.4201,-0.4193,-0.4184,-0.4177,-0.4167,-0.4158,-0.4146,-0.4136,-0.4133,-0.413,-0.4131,-0.4131,-0.413,-0.4123,-0.4124,-0.4134,-0.4134,-0.4134,-0.4134,-0.4134,-0.4134,-0.4254,-0.4248,-0.4242,-0.4232,-0.4225,-0.4217,-0.4212,-0.4205,-0.4198,-0.4188,-0.4181,-0.4174,-0.4164,-0.4154,-0.4146,-0.4142,-0.414,-0.4143,-0.4138,-0.4132,-0.413,-0.4129,-0.4131,-0.4142,-0.4142,-0.4146,-0.4147,-0.4147]}]]